Wind_Speed
37 38 40 43 44 45 47 50 53 55 56 55 54 55 56 58 59 59 59 60 61 62 64 65 66 68 68 68 67 66 66 66 66 63 62 56 50 47 45 46 49 50 49
40 42 43 44 44 47 50 53 55 55 55 54 53 53 55 56 57 57 58 60 61 62 63 64 65 66 65 65 64 65 64 63 61 57 51 45 41 40 39 39 39 39 40
41 42 43 45 48 50 52 53 53 53 54 55 54 54 55 56 55 56 57 59 61 62 63 63 62 62 62 63 62 59 55 52 50 47 41 38 36 37 36 34 33 33 34
46 47 47 48 51 53 51 51 51 52 55 56 56 55 55 54 54 56 58 60 61 61 61 61 61 61 61 59 53 48 45 44 44 41 36 33 33 33 31 29 28 28 29
51 50 48 50 55 53 51 49 49 51 53 55 56 55 54 54 55 58 59 60 60 60 61 61 60 58 55 49 44 42 41 41 38 33 29 27 27 26 25 24 23 23 25
52 50 49 54 58 55 50 48 51 53 54 55 54 53 53 54 56 58 59 58 59 60 60 58 54 50 45 42 40 38 37 35 29 24 20 19 20 21 20 18 17 17 18
51 50 51 56 60 56 51 50 52 53 53 52 51 52 53 54 56 57 57 58 59 58 55 51 47 42 39 38 35 33 32 28 19 15 14 15 14 14 12 11 10 10 10
50 50 54 58 58 54 49 49 49 48 48 49 51 53 55 55 55 56 57 56 54 50 47 43 40 37 36 33 29 26 24 16 11 10 10 9 8 7 6 6 6 7 7
49 52 57 56 54 51 47 46 44 45 47 50 52 53 54 55 54 53 51 49 45 42 39 36 35 34 32 27 22 18 13 8 6 5 4 4 3 2 2 4 4 4 4
48 53 56 54 51 46 43 42 43 46 48 50 51 53 53 52 50 46 43 40 36 33 31 31 31 30 25 19 12 8 4 1 1 2 3 4 3 2 2 2 2 2 1
47 51 52 52 49 43 40 42 44 47 48 50 51 50 47 43 40 37 35 31 27 25 25 25 24 20 14 7 2 3 5 6 5 4 4 5 5 4 3 3 3 4 6
47 48 47 45 43 43 43 45 46 48 49 49 46 41 36 34 32 30 26 21 20 20 20 18 14 11 6 6 8 10 9 8 6 5 5 5 5 5 5 5 8 11 13
43 42 40 39 40 42 44 45 46 47 45 40 33 28 28 29 27 22 18 16 17 17 15 11 9 7 8 11 12 12 11 9 7 5 4 4 4 5 7 10 13 13 10
37 37 37 38 40 42 43 44 43 39 32 25 22 24 27 26 21 16 13 13 13 13 11 9 9 10 12 13 13 11 9 7 5 4 3 4 5 7 10 12 11 11 12
34 37 38 39 39 39 39 37 32 24 19 20 23 25 25 23 17 12 10 10 10 9 6 7 11 13 14 13 11 8 6 5 5 4 5 6 7 9 11 11 14 17 19
35 36 37 36 36 34 30 24 19 19 21 23 23 23 21 18 14 9 8 8 7 4 5 8 10 11 10 10 8 7 6 6 6 6 7 8 9 9 11 13 18 20 22
34 35 34 32 28 23 19 18 20 22 23 22 19 18 16 14 12 7 5 5 4 4 7 9 10 9 9 8 7 7 6 6 7 8 8 9 9 10 12 15 19 21 22
32 30 27 23 19 18 20 21 23 23 21 18 14 13 12 12 10 5 3 3 4 6 8 9 9 9 10 9 9 8 7 7 8 9 9 10 11 12 14 17 19 20 19
28 24 21 19 19 21 22 22 21 20 18 14 10 10 11 11 8 3 2 3 5 7 9 9 9 10 11 11 11 9 8 7 8 10 11 12 14 17 18 20 21 21 20
21 20 19 19 20 21 21 19 17 16 14 9 8 9 10 8 4 3 5 6 9 10 10 10 11 11 12 12 12 10 8 8 10 13 14 16 18 20 21 23 23 23 23
18 19 19 20 19 19 17 15 14 13 10 8 8 9 8 6 6 7 8 10 12 12 12 12 12 12 12 12 12 11 10 11 14 15 16 18 19 20 21 23 24 24 26
18 19 19 18 17 16 13 12 11 10 10 9 9 9 8 9 10 11 12 13 14 15 14 14 13 12 13 12 13 13 12 13 15 16 17 18 19 19 19 20 21 21 22
19 19 18 17 15 13 12 10 10 10 10 10 10 10 12 12 13 15 15 15 15 15 15 14 13 12 11 12 13 13 12 13 15 16 17 18 19 19 18 17 17 16 17
21 20 19 17 15 13 11 10 10 10 10 11 11 13 14 15 16 17 17 16 15 14 14 12 11 10 10 10 11 12 12 12 14 15 16 18 19 18 17 15 14 12 12
25 24 22 20 17 15 13 12 11 10 11 12 12 13 15 17 18 18 17 15 14 12 11 10 9 8 8 8 9 10 11 11 12 14 15 16 18 18 18 17 16 15 15
29 29 27 25 22 19 17 15 14 13 12 13 13 14 16 17 18 18 17 15 13 12 10 8 7 7 7 7 8 9 10 11 12 13 14 14 15 16 16 15 15 14 14
Wind_Direction
282 284 286 287 288 292 297 302 303 302 300 298 296 296 296 297 296 296 295 296 297 299 300 300 299 299 298 298 298 297 296 295 294 292 290 288 284 281 279 278 276 272 269
286 285 285 288 291 297 300 301 300 297 295 293 294 296 298 298 297 296 297 298 300 301 301 300 300 300 299 299 299 298 297 296 295 294 292 288 283 280 281 281 279 273 267
299 297 293 295 299 299 297 297 298 298 295 292 293 296 298 298 297 297 299 300 301 301 301 301 301 301 301 301 300 299 298 296 296 294 291 285 282 281 283 281 277 270 266
302 302 299 299 302 298 293 295 299 301 297 292 292 296 297 298 298 299 300 301 301 302 303 303 303 303 303 303 302 300 299 298 298 295 289 283 281 281 281 280 276 271 267
300 300 297 298 302 296 291 296 301 302 299 297 297 298 298 299 300 300 300 301 303 305 306 305 304 304 304 305 304 302 301 301 299 294 289 284 281 280 282 281 277 272 268
297 297 296 296 297 292 290 296 300 300 300 300 299 298 298 300 300 301 303 306 307 307 306 305 304 305 306 306 306 305 303 303 299 294 291 285 283 284 283 280 273 266 262
295 295 295 296 292 287 289 295 298 299 299 298 297 298 300 302 304 306 308 309 308 306 305 304 306 307 306 305 305 304 302 302 297 295 293 290 290 288 282 272 261 249 246
292 291 293 293 290 288 294 299 300 299 300 300 301 303 305 306 307 309 309 308 306 305 305 307 309 308 307 307 304 299 298 296 295 299 300 298 297 291 274 249 243 243 250
291 290 290 291 294 298 301 302 301 301 301 303 305 306 307 308 310 309 308 306 305 305 307 310 312 313 313 310 303 296 290 288 302 314 315 321 328 306 235 241 257 267 265
288 289 291 298 305 307 306 304 303 304 306 308 308 309 310 310 310 308 307 306 307 309 312 315 317 318 318 314 305 291 278 284 15 23 9 8 14 10 341 325 326 327 308
289 292 296 302 307 309 307 306 306 308 309 309 309 310 310 309 309 309 309 310 312 314 317 318 320 324 329 335 14 111 115 102 86 68 51 43 40 44 48 44 21 340 318
293 297 301 305 307 307 307 308 308 308 309 309 310 310 311 312 315 316 317 319 322 322 323 326 332 343 16 77 100 105 101 92 80 60 41 46 64 65 46 8 340 326 315
298 302 305 306 306 307 307 307 307 308 309 310 312 314 319 322 324 325 327 330 329 329 335 344 356 21 71 91 95 94 88 78 62 46 49 63 53 28 5 346 338 338 336
303 304 306 306 306 306 306 307 310 311 313 315 319 323 327 329 330 332 334 336 335 341 354 11 37 63 85 94 92 86 77 58 40 40 50 43 30 10 354 353 7 36 57
306 307 307 306 306 307 311 314 315 317 321 323 324 325 329 332 334 334 337 341 343 350 18 58 78 84 88 87 82 73 58 38 32 42 45 38 24 11 12 30 52 67 77
307 307 307 309 312 315 318 320 321 322 322 323 324 327 331 333 333 333 338 345 351 23 69 86 90 89 84 78 70 63 55 48 52 57 51 41 32 33 42 54 63 77 86
311 312 315 317 319 321 322 321 319 320 323 325 327 330 334 334 330 326 335 352 15 84 97 100 95 88 83 73 64 58 55 59 61 55 51 49 49 52 60 67 72 80 90
317 319 320 320 320 321 321 322 323 326 328 329 330 334 335 337 335 326 339 19 74 107 114 111 99 90 86 75 65 61 64 65 61 58 59 59 64 74 81 80 78 76 83
324 325 323 322 323 324 325 327 329 332 333 333 336 341 339 338 343 355 49 71 105 115 119 114 106 100 88 77 69 64 65 67 67 69 71 76 88 94 92 87 79 72 71
330 332 333 332 331 332 334 336 340 343 345 349 352 351 350 352 15 72 85 98 111 114 114 111 109 101 87 79 68 61 65 75 81 83 84 94 102 104 98 91 83 75 72
339 339 339 338 340 342 344 348 354 359 8 15 10 7 13 33 68 85 92 102 106 109 109 109 108 97 85 76 63 60 69 86 92 90 93 103 109 109 104 97 91 86 82
347 344 344 345 348 353 359 4 10 18 26 29 30 34 48 71 84 89 94 100 103 105 105 105 103 96 84 74 65 63 76 93 96 93 97 108 116 115 110 104 97 91 87
4 2 0 360 2 7 14 21 29 37 40 39 46 63 75 84 90 92 94 98 100 100 99 98 96 89 77 70 64 65 79 98 101 97 99 108 119 121 117 111 105 98 93
20 17 16 16 19 24 31 39 46 51 50 53 72 80 84 91 96 96 95 96 95 96 96 93 88 83 78 72 65 67 78 97 107 105 103 105 111 117 117 113 108 103 99
32 31 31 32 34 39 46 51 56 60 62 69 82 85 90 97 99 96 94 93 91 91 90 88 84 83 83 78 72 72 79 93 105 112 116 115 113 112 112 110 107 103 100
41 41 41 42 45 48 53 57 60 64 72 79 85 88 94 97 97 95 91 88 87 85 82 79 80 84 88 84 80 80 84 93 100 107 117 123 123 118 113 109 105 103 102
Height
5768 5765 5762 5758 5754 5750 5746 5742 5736 5729 5724 5718 5712 5707 5702 5697 5692 5686 5681 5675 5668 5661 5653 5646 5639 5631 5624 5617 5609 5602 5595 5589 5585 5583 5577 5574 5570 5566 5564 5561 5560 5559 5560
5758 5754 5751 5747 5743 5739 5734 5729 5723 5718 5712 5706 5701 5695 5690 5685 5679 5673 5667 5661 5654 5646 5639 5631 5624 5616 5608 5600 5593 5585 5578 5571 5565 5562 5559 5556 5554 5551 5549 5547 5545 5544 5545
5748 5744 5740 5736 5732 5727 5722 5717 5711 5705 5699 5694 5689 5684 5678 5672 5666 5659 5653 5647 5639 5632 5624 5616 5608 5601 5593 5585 5577 5569 5562 5555 5550 5547 5544 5542 5541 5539 5537 5535 5534 5534 5535
5737 5733 5729 5724 5720 5714 5709 5704 5698 5692 5687 5681 5676 5671 5665 5659 5652 5645 5639 5632 5625 5617 5609 5601 5592 5584 5576 5568 5561 5554 5548 5543 5538 5534 5532 5530 5529 5528 5527 5526 5526 5525 5526
5725 5721 5717 5712 5707 5702 5697 5692 5686 5680 5674 5669 5664 5658 5652 5646 5639 5632 5625 5618 5610 5602 5593 5585 5576 5568 5560 5553 5548 5543 5537 5532 5527 5524 5522 5521 5521 5520 5519 5519 5519 5519 5518
5713 5709 5704 5700 5694 5689 5683 5679 5673 5668 5662 5656 5651 5645 5639 5632 5625 5618 5611 5603 5595 5587 5579 5571 5562 5555 5548 5543 5537 5532 5527 5522 5519 5517 5516 5515 5515 5514 5513 5513 5512 5512 5513
5702 5697 5693 5688 5683 5676 5671 5666 5661 5655 5649 5644 5639 5632 5626 5620 5612 5604 5596 5589 5581 5573 5565 5558 5550 5544 5538 5534 5529 5524 5519 5515 5513 5512 5511 5511 5510 5509 5508 5508 5508 5508 5509
5691 5686 5682 5677 5672 5665 5659 5654 5648 5642 5637 5632 5627 5620 5613 5606 5599 5591 5584 5575 5567 5560 5553 5546 5540 5535 5529 5525 5521 5517 5514 5511 5509 5509 5509 5508 5507 5506 5505 5505 5506 5506 5507
5680 5676 5671 5665 5659 5653 5647 5642 5636 5631 5626 5620 5614 5607 5600 5593 5587 5579 5571 5563 5556 5550 5543 5537 5532 5526 5521 5517 5513 5511 5510 5509 5508 5508 5507 5506 5505 5505 5504 5504 5505 5506 5506
5670 5665 5659 5652 5647 5642 5636 5631 5626 5620 5614 5608 5602 5595 5589 5581 5575 5567 5559 5553 5547 5542 5536 5531 5526 5521 5516 5511 5509 5508 5508 5508 5508 5508 5507 5506 5505 5505 5505 5505 5505 5505 5505
5659 5654 5648 5642 5636 5632 5626 5621 5615 5609 5604 5598 5592 5585 5578 5571 5564 5558 5551 5545 5540 5536 5532 5528 5523 5518 5513 5510 5508 5508 5509 5509 5509 5509 5508 5508 5507 5507 5506 5506 5506 5505 5504
5649 5644 5638 5632 5627 5622 5617 5611 5605 5600 5594 5588 5582 5576 5569 5562 5556 5549 5544 5539 5536 5532 5529 5525 5521 5517 5514 5512 5511 5511 5512 5512 5512 5511 5511 5510 5509 5509 5508 5507 5506 5504 5501
5639 5634 5629 5623 5618 5613 5608 5602 5597 5591 5584 5578 5573 5567 5562 5556 5549 5544 5540 5537 5534 5531 5527 5524 5521 5519 5517 5516 5515 5515 5515 5515 5515 5514 5513 5512 5512 5511 5509 5507 5505 5501 5498
5630 5626 5622 5616 5610 5605 5599 5593 5587 5581 5575 5570 5566 5562 5556 5551 5545 5541 5538 5536 5533 5530 5528 5526 5523 5521 5520 5520 5520 5519 5519 5519 5518 5516 5516 5515 5514 5512 5510 5507 5504 5501 5499
5623 5618 5613 5608 5602 5596 5590 5584 5578 5573 5569 5566 5561 5557 5552 5547 5543 5540 5537 5536 5533 5531 5530 5528 5526 5525 5525 5524 5524 5523 5522 5521 5520 5519 5519 5518 5516 5514 5511 5509 5507 5505 5504
5617 5611 5605 5599 5593 5587 5582 5577 5572 5569 5565 5561 5556 5552 5547 5544 5541 5538 5537 5535 5534 5532 5531 5530 5529 5529 5529 5528 5527 5526 5525 5524 5523 5522 5522 5520 5519 5516 5515 5513 5512 5511 5510
5609 5603 5597 5591 5586 5581 5577 5573 5570 5565 5561 5556 5552 5548 5545 5542 5540 5538 5537 5536 5535 5534 5533 5533 5532 5532 5532 5532 5530 5529 5528 5527 5527 5526 5525 5523 5522 5520 5519 5519 5518 5517 5517
5603 5597 5591 5586 5581 5577 5573 5569 5565 5560 5556 5552 5549 5546 5544 5542 5539 5537 5537 5536 5536 5535 5535 5535 5535 5535 5535 5535 5534 5532 5531 5531 5530 5529 5528 5527 5526 5525 5525 5525 5524 5524 5524
5596 5591 5586 5582 5577 5573 5569 5564 5560 5556 5552 5549 5547 5545 5543 5541 5539 5538 5537 5537 5537 5537 5538 5538 5538 5539 5539 5538 5537 5536 5535 5534 5534 5533 5532 5531 5531 5531 5531 5531 5531 5531 5531
5592 5587 5583 5578 5574 5569 5565 5561 5557 5554 5550 5548 5547 5545 5543 5541 5539 5539 5539 5539 5539 5540 5541 5541 5542 5542 5542 5542 5541 5540 5539 5538 5538 5538 5537 5536 5537 5538 5538 5539 5539 5539 5539
5589 5585 5580 5576 5571 5567 5563 5559 5556 5553 5550 5548 5547 5545 5543 5542 5541 5541 5541 5541 5542 5543 5544 5545 5545 5546 5546 5546 5545 5544 5543 5543 5543 5543 5542 5543 5544 5545 5545 5546 5547 5547 5548
5587 5583 5578 5574 5569 5565 5562 5559 5556 5554 5551 5550 5548 5546 5545 5544 5544 5544 5544 5545 5546 5547 5548 5549 5550 5550 5550 5550 5549 5548 5547 5548 5548 5549 5549 5549 5550 5551 5552 5553 5554 5555 5555
5587 5582 5578 5573 5569 5565 5562 5559 5557 5555 5553 5552 5550 5548 5547 5547 5547 5548 5548 5549 5550 5551 5552 5553 5554 5554 5554 5554 5554 5553 5553 5553 5554 5555 5555 5555 5556 5558 5559 5560 5561 5562 5563
5589 5584 5578 5574 5570 5566 5563 5561 5559 5557 5556 5554 5553 5552 5551 5551 5551 5552 5553 5554 5555 5555 5556 5557 5558 5558 5558 5559 5558 5558 5558 5559 5560 5561 5562 5562 5563 5564 5566 5567 5567 5568 5569
5592 5587 5581 5576 5572 5568 5565 5563 5561 5560 5559 5558 5557 5556 5556 5556 5556 5557 5558 5558 5559 5560 5560 5561 5562 5562 5562 5563 5563 5563 5563 5564 5565 5566 5567 5569 5570 5571 5572 5573 5574 5575 5575
5597 5591 5586 5581 5576 5572 5569 5567 5565 5563 5562 5562 5561 5561 5561 5561 5562 5562 5563 5563 5564 5564 5564 5565 5565 5565 5566 5566 5567 5567 5568 5569 5570 5571 5572 5574 5575 5577 5578 5579 5580 5581 5581